[[{"header":{"parameterUnit":"m.s-1","parameterCategory":1,"la1":30.2991,"la2":30.254,"lo1":-89.0895,"lo2":-89.0444,"dy":0.0017,"dx":0.0017,"nx":28,"ny":28,"refTime":"2023-04-27T21:00:00:Z","depth":0,"parameterNumber":2,"parameterNumberName":"U-component_of_WINDS"},"data":[0,0,0,0,0,0,0,0,0,0,0,0,0,0,0,0,0,0,0,0,0,0,0,0,0,0,0,0,0,0,0,0,0,0,0,0,0,0,0,0,0,0,0,0,0,0,0,0,0,0,0,0,0,0,0,0,0,0,-1.8631,-1.8633,0,-1.879,-1.8792,-1.8794,-1.8836,-1.8835,-1.8834,-1.8833,-1.8999,-1.9004,-1.901,0,0,0,0,0,0,0,0,0,0,0,0,0,-1.8368,-1.8372,-1.8631,-1.8633,-1.8635,-1.879,-1.8792,-1.8794,-1.8836,-1.8835,-1.8834,-1.8833,-1.8997,-1.9004,-1.901,0,0,0,0,0,0,0,0,0,0,0,0,0,-1.85,-1.8374,-1.8631,-1.8674,-1.868,-1.879,-1.8792,-1.8795,-1.8836,-1.8835,-1.8833,-1.8832,-1.8995,-1.9003,-1.9011,-1.909,0,0,-1.9035,-1.9039,0,0,0,0,0,0,0,0,-1.8492,-1.851,-1.8666,-1.8672,-1.8678,-1.8792,-1.876,-1.8894,-1.8837,-1.8777,-1.8833,-1.8831,-1.8931,-1.8945,-1.8978,-1.9097,-1.9104,-1.9036,-1.9041,-1.9044,-1.9047,0,0,0,0,0,0,0,-1.8483,-1.8503,-1.8694,-1.8668,-1.8676,-1.8688,-1.8705,-1.8786,-1.8861,-1.8782,-1.8785,-1.8804,-1.8934,-1.897,-1.8982,-1.9107,-1.9036,-1.9043,-1.9048,-1.9051,-1.9301,-1.9302,0,0,0,0,0,0,-1.8466,-1.8495,-1.8689,-1.8699,-1.858,-1.8693,-1.8713,-1.8757,-1.886,-1.8874,-1.8805,-1.8805,-1.8957,-1.8973,-1.8988,-1.9087,-1.9044,-1.9052,-1.9056,-1.9299,-1.9301,-1.9303,0,0,0,0,0,0,-1.846,-1.8483,-1.8683,-1.8598,-1.8624,-1.87,-1.8749,-1.8761,-1.8796,-1.8877,-1.8891,-1.8827,-1.8956,-1.8977,-1.9064,-1.9094,-1.9055,-1.9063,-1.9297,-1.93,-1.9302,-1.9286,0,0,0,0,0,0,-1.8452,-1.848,-1.851,-1.8598,-1.8629,-1.8755,-1.8751,-1.8765,-1.8809,-1.8811,-1.8901,-1.8915,-1.8957,-1.9052,-1.9072,-1.9104,-1.9069,-1.9294,-1.9298,-1.9301,-1.9284,-1.9288,-1.9291,0,0,0,0,0,-1.8443,-1.8499,-1.8511,-1.8534,-1.8667,-1.8756,-1.8774,-1.882,-1.8812,-1.8843,-1.8895,-1.8912,-1.9087,-1.906,-1.9084,-1.9118,-1.9293,-1.9297,-1.9301,-1.9283,-1.9287,-1.9291,0,0,0,0,0,0,-1.8413,-1.8512,-1.8526,-1.8612,-1.8676,-1.8763,-1.8803,-1.8823,-1.8891,-1.889,-1.8945,-1.8966,-1.9049,-1.9093,-1.9061,-1.9201,-1.919,-1.9199,-1.9169,-1.9173,-1.9177,-1.9164,-1.9076,0,0,0,0,0,-1.8417,-1.848,-1.8563,-1.8632,-1.8662,-1.8727,-1.8768,-1.8798,-1.8866,-1.8894,-1.8952,-1.9019,-1.9089,-1.9134,-1.9203,-1.9291,-1.9312,-1.9327,-1.933,-1.9333,-1.9339,-1.939,-1.9398,-1.9317,-1.9317,-1.9317,0,0,-1.8424,-1.8486,-1.8523,-1.8627,-1.868,-1.8745,-1.875,-1.8818,-1.8868,-1.8905,-1.899,-1.9036,-1.9114,-1.9202,-1.9244,-1.9241,-1.9367,-1.9338,-1.9339,-1.9345,-1.9395,-1.9403,-1.941,-1.9319,-1.9319,-1.9319,0,0,-1.8472,-1.8525,-1.8588,-1.864,-1.872,-1.8763,-1.8778,-1.8863,-1.8895,-1.8981,-1.9011,-1.9071,-1.9191,-1.9245,-1.9289,-1.9359,-1.9378,-1.938,-1.9397,-1.9447,-1.9453,-1.9459,-1.9484,-1.9492,-1.9387,-1.9387,-1.9387,0,-1.8472,-1.857,-1.8618,-1.8686,-1.8731,-1.8767,-1.8832,-1.8882,-1.898,-1.9011,-1.9006,-1.9158,-1.9213,-1.9315,-1.9332,-1.9366,-1.9386,-1.9369,-1.9448,-1.9454,-1.9461,-1.9485,-1.9495,-1.9387,-1.9387,-1.9387,-1.9387,0,-1.8566,-1.8634,-1.8676,-1.8769,-1.882,-1.8886,-1.8945,-1.8991,-1.9018,-1.9062,-1.9151,-1.9218,-1.9302,-1.9329,-1.9356,-1.9435,-1.9431,-1.9437,-1.9427,-1.9467,-1.9491,-1.9501,-1.9386,-1.9387,-1.9387,-1.9387,0,0,-1.8598,-1.8717,-1.8732,-1.8775,-1.8866,-1.892,-1.8989,-1.907,-1.9108,-1.9176,-1.9235,-1.9336,-1.9342,-1.9392,-1.9425,-1.9468,-1.952,-1.9469,-1.9472,-1.9476,-1.9613,-1.9607,-1.9617,-1.9534,-1.9536,-1.9538,-1.9606,0,-1.8656,-1.8778,-1.8824,-1.8925,-1.8989,-1.9025,-1.9085,-1.9148,-1.9192,-1.9254,-1.9303,-1.9374,-1.9376,-1.9406,-1.9451,-1.9504,-1.9548,-1.95,-1.9591,-1.9593,-1.9568,-1.963,-1.9624,-1.9685,-1.9616,-1.9618,-1.9619,0,-1.874,-1.8807,-1.8914,-1.8998,-1.9026,-1.9079,-1.9158,-1.9216,-1.929,-1.9319,-1.9374,-1.9406,-1.9481,-1.9468,-1.9572,-1.9538,-1.9579,-1.9611,-1.9615,-1.9624,-1.9607,-1.964,-1.9706,-1.9715,-1.9634,-1.9633,-1.9632,0,-1.8752,-1.887,-1.8949,-1.8984,-1.9084,-1.9121,-1.9164,-1.9236,-1.9282,-1.9352,-1.9383,-1.9461,-1.9503,-1.9563,-1.9616,-1.9601,-1.9716,-1.9707,-1.9743,-1.9741,-1.9764,-1.9762,-1.9836,-1.9791,-1.9791,-1.9791,-1.9791,0,-1.8812,-1.8876,-1.8955,-1.9003,-1.9077,-1.913,-1.9201,-1.9248,-1.9312,-1.9371,-1.9408,-1.9463,-1.9529,-1.9594,-1.9635,-1.9716,-1.9735,-1.9761,-1.9772,-1.9758,-1.9754,-1.9784,-1.9781,-1.9793,-1.9793,-1.9792,-1.9792,0,-1.8837,-1.8893,-1.8981,-1.9069,-1.9092,-1.9142,-1.9218,-1.9268,-1.9313,-1.9388,-1.9409,-1.9482,-1.9559,-1.9618,-1.9719,-1.9747,-1.9833,-1.9844,-1.9807,-1.9812,-1.9844,-1.984,-1.994,-1.9956,-1.99,-1.9901,-1.9901,0,-1.8871,-1.8921,-1.9014,-1.9055,-1.9098,-1.9165,-1.9213,-1.9268,-1.9316,-1.9404,-1.9443,-1.9524,-1.959,-1.9713,-1.9776,-1.9854,-1.9867,-1.9896,-1.9879,-1.9863,-1.9867,-1.9863,-1.9868,-1.9898,-1.9899,-1.9899,-1.9899,0,-1.8926,-1.8951,-1.9017,-1.9093,-1.9148,-1.9211,-1.9275,-1.9307,-1.9375,-1.9427,-1.9506,-1.9558,-1.9661,-1.9741,-1.9825,-1.9872,-1.9897,-1.9904,-1.9917,-1.9902,-1.9879,-1.9892,-1.9813,-1.9901,-1.9901,-1.9901,-1.9901,-1.9901,-1.8957,-1.9002,-1.9075,-1.9148,-1.9201,-1.926,-1.9311,-1.9363,-1.943,-1.9517,-1.9547,-1.9628,-1.9703,-1.9818,-1.9866,-1.9932,-1.9933,-1.995,-1.9955,-1.9958,-1.9957,-1.9869,-1.9948,-1.9948,-1.9948,-1.9948,-1.9948,0,-1.9013,-1.9061,-1.9127,-1.9215,-1.9272,-1.929,-1.9362,-1.941,-1.9481,-1.9547,-1.9612,-1.9704,-1.9782,-1.9851,-1.9932,-1.9972,-1.9986,-1.9991,-1.9989,-1.9999,-1.9952,-1.9933,-1.9979,-1.9979,-1.9979,-1.9979,-1.9979,-1.9979,-1.9049,-1.9127,-1.9161,-1.9268,-1.9317,-1.9396,-1.9436,-1.9491,-1.9544,-1.9645,-1.9709,-1.9753,-1.9821,-1.9908,-1.9981,-1.9999,-2.0027,-2.003,-2.0051,-2.0006,-2.0002,-1.9999,-1.9981,-2.0036,-2.0036,-2.0093,-2.0093,-2.0094]},{"header":{"parameterUnit":"m.s-1","parameterCategory":1,"la1":30.2991,"la2":30.254,"lo1":-89.0895,"lo2":-89.0444,"dy":0.0017,"dx":0.0017,"nx":28,"ny":28,"refTime":"2023-04-27T21:00:00:Z","depth":0,"parameterNumber":3,"parameterNumberName":"V-component_of_WINDS"},"data":[0,0,0,0,0,0,0,0,0,0,0,0,0,0,0,0,0,0,0,0,0,0,0,0,0,0,0,0,0,0,0,0,0,0,0,0,0,0,0,0,0,0,0,0,0,0,0,0,0,0,0,0,0,0,0,0,0,0,3.137,3.1371,0,3.1459,3.146,3.1461,3.1493,3.1492,3.1492,3.1492,3.158,3.1583,3.1585,0,0,0,0,0,0,0,0,0,0,0,0,0,3.1224,3.1227,3.137,3.1371,3.1372,3.1459,3.146,3.1462,3.1493,3.1492,3.1492,3.1491,3.1579,3.1583,3.1586,0,0,0,0,0,0,0,0,0,0,0,0,0,3.1298,3.1227,3.137,3.1398,3.1402,3.1459,3.146,3.1462,3.1493,3.1492,3.1492,3.1491,3.1578,3.1582,3.1586,3.1621,0,0,3.1598,3.16,0,0,0,0,0,0,0,0,3.1293,3.1303,3.1393,3.1396,3.14,3.1464,3.1442,3.1515,3.1493,3.1458,3.1492,3.1491,3.1542,3.1549,3.1567,3.1625,3.1629,3.1599,3.1601,3.1603,3.1604,0,0,0,0,0,0,0,3.1288,3.1299,3.1405,3.1394,3.1399,3.1406,3.1416,3.1456,3.1502,3.1461,3.1464,3.1474,3.1544,3.1563,3.1569,3.163,3.1599,3.1602,3.1605,3.1606,3.1722,3.1723,0,0,0,0,0,0,3.1279,3.1295,3.1402,3.1408,3.1345,3.1409,3.142,3.1444,3.1501,3.151,3.1474,3.1475,3.1556,3.1564,3.1572,3.1617,3.1603,3.1607,3.1609,3.1721,3.1722,3.1723,0,0,0,0,0,0,3.1276,3.1288,3.1399,3.1352,3.1367,3.1412,3.1439,3.1446,3.1465,3.1511,3.1519,3.1485,3.1556,3.1567,3.1609,3.1621,3.1608,3.1612,3.1721,3.1722,3.1723,3.1707,0,0,0,0,0,0,3.1271,3.1287,3.1301,3.1352,3.1369,3.1435,3.144,3.1448,3.1472,3.1474,3.1524,3.1531,3.1556,3.1603,3.1613,3.1626,3.1615,3.172,3.1721,3.1722,3.1707,3.1708,3.1708,0,0,0,0,0,3.1266,3.1292,3.1301,3.1314,3.1388,3.1435,3.1445,3.1474,3.1473,3.1488,3.1517,3.153,3.1618,3.1607,3.1618,3.1633,3.1719,3.1721,3.1722,3.1707,3.1708,3.1708,0,0,0,0,0,0,3.124,3.1299,3.131,3.1354,3.1389,3.144,3.1459,3.1474,3.1509,3.151,3.1543,3.1554,3.1594,3.1618,3.1604,3.167,3.1669,3.1673,3.1653,3.1655,3.1655,3.1649,3.1618,0,0,0,0,0,3.1239,3.1273,3.1323,3.1357,3.1374,3.1414,3.1435,3.1455,3.1493,3.1508,3.154,3.1576,3.1611,3.1634,3.1669,3.171,3.1722,3.1726,3.1727,3.1727,3.173,3.1755,3.1757,3.1728,3.1728,3.1728,0,0,3.1238,3.1275,3.1294,3.1353,3.1382,3.1417,3.1426,3.1462,3.1487,3.1513,3.1555,3.158,3.1622,3.1664,3.1684,3.1685,3.1741,3.1729,3.1729,3.1732,3.1757,3.1759,3.1762,3.1729,3.1729,3.1729,0,0,3.1254,3.1285,3.1317,3.1347,3.1393,3.1419,3.1426,3.1475,3.1494,3.1537,3.1557,3.1588,3.1648,3.1678,3.17,3.1728,3.1741,3.1739,3.1742,3.1766,3.1768,3.177,3.1781,3.1784,3.1741,3.1741,3.1741,0,3.1246,3.13,3.1331,3.1367,3.1392,3.1417,3.145,3.1477,3.1531,3.1548,3.1548,3.1626,3.1656,3.1706,3.1713,3.173,3.174,3.1733,3.1765,3.1768,3.177,3.1781,3.1785,3.1741,3.1741,3.1741,3.1741,0,3.1289,3.1326,3.1346,3.1399,3.1427,3.146,3.1497,3.152,3.1538,3.1564,3.1608,3.1644,3.1688,3.1701,3.1718,3.1754,3.1753,3.1759,3.1759,3.1772,3.1783,3.1787,3.174,3.174,3.174,3.1741,0,0,3.1291,3.1362,3.1369,3.1394,3.1446,3.1475,3.1509,3.1553,3.1574,3.161,3.164,3.1691,3.1697,3.1723,3.1743,3.1764,3.1784,3.1767,3.1769,3.177,3.1827,3.1823,3.1827,3.1793,3.1794,3.1795,3.1824,0,3.1314,3.1379,3.1408,3.1459,3.1494,3.1519,3.1549,3.1584,3.161,3.1642,3.1669,3.1706,3.171,3.1726,3.1748,3.1777,3.1797,3.1776,3.1822,3.1823,3.1811,3.1833,3.1829,3.1854,3.1828,3.1829,3.183,0,3.135,3.1388,3.1443,3.1492,3.1508,3.1535,3.1578,3.1609,3.1649,3.1666,3.1695,3.1715,3.1752,3.1749,3.1801,3.1786,3.1806,3.1824,3.1826,3.1832,3.1828,3.184,3.1863,3.1867,3.1836,3.1836,3.1835,0,3.1348,3.1412,3.1454,3.1474,3.1532,3.155,3.1575,3.1615,3.164,3.1677,3.1694,3.1734,3.1757,3.1788,3.1817,3.1812,3.1867,3.1866,3.1882,3.1881,3.1893,3.1892,3.192,3.1904,3.1904,3.1904,3.1904,0,3.1371,3.1404,3.1453,3.1479,3.1516,3.155,3.1586,3.1612,3.1648,3.1678,3.1702,3.173,3.1768,3.18,3.1824,3.1864,3.1873,3.1888,3.1894,3.1887,3.1885,3.1901,3.19,3.1905,3.1905,3.1905,3.1905,0,3.1374,3.1409,3.1456,3.1507,3.1521,3.1546,3.159,3.1616,3.1642,3.1681,3.1692,3.1734,3.1774,3.1807,3.1859,3.1875,3.1917,3.1923,3.1903,3.1907,3.1921,3.192,3.1962,3.197,3.1947,3.1948,3.1948,0,3.1388,3.1414,3.1468,3.1491,3.1516,3.1553,3.1579,3.1612,3.1638,3.1686,3.1706,3.1748,3.1784,3.1847,3.1881,3.1921,3.1929,3.1941,3.1935,3.1927,3.1931,3.1929,3.1932,3.1942,3.1942,3.1942,3.1942,0,3.1408,3.1424,3.1461,3.1504,3.1534,3.157,3.1605,3.1622,3.1662,3.169,3.1732,3.176,3.1814,3.1856,3.19,3.1925,3.194,3.1944,3.195,3.1943,3.1931,3.1939,3.1906,3.1943,3.1943,3.1943,3.1943,3.1942,3.1418,3.1442,3.1485,3.1525,3.1556,3.1589,3.1616,3.1646,3.1682,3.173,3.1747,3.179,3.183,3.1891,3.1917,3.1951,3.1952,3.1961,3.1963,3.1965,3.1964,3.1925,3.1959,3.1959,3.1959,3.1959,3.1959,0,3.144,3.1469,3.1506,3.1556,3.1587,3.16,3.164,3.1666,3.1704,3.174,3.1775,3.1824,3.1865,3.1902,3.1945,3.1965,3.1973,3.1975,3.1974,3.198,3.196,3.1951,3.1968,3.1968,3.1968,3.1968,3.1968,3.1968,3.1456,3.1499,3.152,3.1578,3.1606,3.165,3.1672,3.1702,3.1732,3.1785,3.1819,3.1844,3.1881,3.1927,3.1965,3.1975,3.199,3.199,3.2002,3.1982,3.1981,3.198,3.1972,3.1992,3.1992,3.2019,3.2019,3.2019]}]]